Time,TemperatureF,DewpointF,PressureIn,WindDirection,WindDirectionDegrees,WindSpeedMPH,WindSpeedGustMPH,Humidity,HourlyPrecipIn,Conditions,Clouds,dailyrainin,SoftwareType,DateUTC
2013-02-03 09:52:00,9.0,2.0,29.74,NNW,328,9.0,17.0,74,0.00,,,0.00,,2013-02-03 15:52:00,
2013-02-03 10:02:00,9.0,2.0,29.74,NW,325,10.0,17.0,73,0.00,,,0.00,,2013-02-03 16:02:00,
2013-02-03 10:11:00,9.0,2.0,29.74,NW,325,10.0,17.0,73,0.00,,,0.00,,2013-02-03 16:11:00,
2013-02-03 10:22:00,9.0,2.0,29.74,NW,325,10.0,17.0,73,0.00,,,0.00,,2013-02-03 16:22:00,
2013-02-03 10:32:00,9.0,2.0,29.74,NW,325,10.0,17.0,73,0.00,,,0.00,,2013-02-03 16:32:00,
2013-02-03 10:41:00,9.0,2.0,29.74,NW,325,10.0,17.0,73,0.00,,,0.00,,2013-02-03 16:41:00,
2013-02-03 12:23:00,14.0,2.0,29.74,NW,314,8.0,18.0,57,0.00,,,0.00,,2013-02-03 18:23:00,
2013-02-03 12:33:00,15.0,2.0,29.74,NW,309,9.0,18.0,56,0.00,,,0.00,,2013-02-03 18:33:00,
2013-02-03 12:42:00,15.0,2.0,29.74,NW,309,9.0,18.0,56,0.00,,,0.00,,2013-02-03 18:42:00,
2013-02-03 12:52:00,15.0,2.0,29.74,NW,317,10.0,18.0,55,0.00,,,0.00,,2013-02-03 18:52:00,
2013-02-03 13:02:00,16.0,2.0,29.74,NW,304,10.0,18.0,52,0.00,,,0.00,,2013-02-03 19:02:00,
2013-02-03 13:11:00,16.0,2.0,29.74,NW,304,10.0,18.0,52,0.00,,,0.00,,2013-02-03 19:11:00,
2013-02-03 13:22:00,16.0,1.0,29.74,NW,311,9.0,17.0,51,0.00,,,0.00,,2013-02-03 19:22:00,
2013-02-03 13:32:00,16.0,2.0,29.74,NW,312,11.0,19.0,52,0.00,,,0.00,,2013-02-03 19:32:00,
2013-02-03 13:41:00,16.0,2.0,29.74,NW,312,11.0,19.0,52,0.00,,,0.00,,2013-02-03 19:41:00,
2013-02-03 13:52:00,16.0,0.0,29.74,NW,318,11.0,21.0,49,0.00,,,0.00,,2013-02-03 19:52:00,
2013-02-03 14:01:00,17.0,1.0,29.74,NNW,336,9.0,17.0,48,0.00,,,0.00,,2013-02-03 20:01:00,
2013-02-03 14:12:00,17.0,1.0,29.74,NNW,336,9.0,17.0,48,0.00,,,0.00,,2013-02-03 20:12:00,
2013-02-03 14:21:00,17.0,1.0,29.74,NNW,336,9.0,17.0,48,0.00,,,0.00,,2013-02-03 20:21:00,
2013-02-03 14:32:00,17.0,0.0,29.74,NW,322,10.0,18.0,47,0.00,,,0.00,,2013-02-03 20:32:00,
2013-02-03 14:42:00,17.0,0.0,29.74,NW,322,10.0,18.0,47,0.00,,,0.00,,2013-02-03 20:42:00,
2013-02-03 14:52:00,17.0,0.0,29.76,NW,306,8.0,17.0,47,0.00,,,0.00,,2013-02-03 20:52:00,
2013-02-03 15:03:00,17.0,0.0,29.76,NW,320,10.0,17.0,46,0.00,,,0.00,,2013-02-03 21:03:00,
2013-02-03 15:11:00,17.0,0.0,29.76,NW,320,10.0,17.0,46,0.00,,,0.00,,2013-02-03 21:11:00,
2013-02-03 15:21:00,17.0,0.0,29.76,NW,325,9.0,14.0,47,0.00,,,0.00,,2013-02-03 21:21:00,
2013-02-03 15:32:00,17.0,1.0,29.78,NW,317,10.0,17.0,48,0.00,,,0.00,,2013-02-03 21:32:00,
2013-02-03 15:42:00,17.0,1.0,29.78,NW,317,10.0,17.0,48,0.00,,,0.00,,2013-02-03 21:42:00,
2013-02-03 15:52:00,17.0,0.0,29.78,NW,319,9.0,18.0,46,0.00,,,0.00,,2013-02-03 21:52:00,
2013-02-03 16:01:00,16.0,-1.0,29.78,NW,326,8.0,17.0,47,0.00,,,0.00,,2013-02-03 22:01:00,
2013-02-03 16:11:00,16.0,-1.0,29.78,NW,326,8.0,17.0,47,0.00,,,0.00,,2013-02-03 22:11:00,
2013-02-03 16:21:00,16.0,-1.0,29.78,NW,318,8.0,16.0,47,0.00,,,0.00,,2013-02-03 22:21:00,
2013-02-03 16:32:00,16.0,-1.0,29.78,NW,318,8.0,16.0,47,0.00,,,0.00,,2013-02-03 22:32:00,
2013-02-03 16:41:00,16.0,-1.0,29.78,NW,318,8.0,16.0,47,0.00,,,0.00,,2013-02-03 22:41:00,
2013-02-03 16:52:00,15.0,-1.0,29.78,NW,326,6.0,11.0,49,0.00,,,0.00,,2013-02-03 22:52:00,
2013-02-03 17:01:00,15.0,0.0,29.79,NW,325,4.0,8.0,50,0.00,,,0.00,,2013-02-03 23:01:00,
2013-02-03 17:12:00,15.0,0.0,29.79,NW,325,4.0,8.0,50,0.00,,,0.00,,2013-02-03 23:12:00,
2013-02-03 17:22:00,14.0,-1.0,29.79,NW,325,3.0,7.0,51,0.00,,,0.00,,2013-02-03 23:22:00,
2013-02-03 17:32:00,14.0,0.0,29.79,NW,325,4.0,8.0,52,0.00,,,0.00,,2013-02-03 23:32:00,
2013-02-03 17:41:00,14.0,0.0,29.79,NW,325,4.0,8.0,52,0.00,,,0.00,,2013-02-03 23:41:00,
2013-02-03 17:52:00,13.0,-1.0,29.80,NNW,329,2.0,6.0,53,0.00,,,0.00,,2013-02-03 23:52:00,
2013-02-03 18:01:00,13.0,0.0,29.80,NNW,333,2.0,5.0,54,0.00,,,0.00,,2013-02-04 00:01:00,
2013-02-03 18:11:00,13.0,0.0,29.80,NNW,333,2.0,5.0,54,0.00,,,0.00,,2013-02-04 00:11:00,
2013-02-03 18:22:00,11.0,-1.0,29.81,NNW,332,1.0,2.0,57,0.00,,,0.00,,2013-02-04 00:22:00,
2013-02-03 18:31:00,11.0,-1.0,29.82,NNW,332,0.0,2.0,57,0.00,,,0.00,,2013-02-04 00:31:00,
2013-02-03 18:41:00,11.0,-1.0,29.82,NNW,332,0.0,2.0,57,0.00,,,0.00,,2013-02-04 00:41:00,
2013-02-03 18:52:00,11.0,-1.0,29.82,NNW,332,0.0,2.0,57,0.00,,,0.00,,2013-02-04 00:52:00,
2013-02-03 19:01:00,8.0,-2.0,29.82,North,0,0.0,0.0,64,0.00,,,0.00,,2013-02-04 01:01:00,
2013-02-03 19:11:00,8.0,-2.0,29.82,North,0,0.0,0.0,64,0.00,,,0.00,,2013-02-04 01:11:00,
2013-02-03 19:21:00,8.0,-2.0,29.83,NNW,332,0.0,2.0,64,0.00,,,0.00,,2013-02-04 01:21:00,
2013-02-03 19:31:00,8.0,-2.0,29.83,North,0,0.0,0.0,64,0.00,,,0.00,,2013-02-04 01:31:00,
2013-02-03 19:41:00,8.0,-2.0,29.83,North,0,0.0,0.0,64,0.00,,,0.00,,2013-02-04 01:41:00,
2013-02-03 19:52:00,6.0,-3.0,29.83,North,0,0.0,0.0,67,0.00,,,0.00,,2013-02-04 01:52:00,
2013-02-03 20:02:00,6.0,-3.0,29.83,North,0,0.0,0.0,67,0.00,,,0.00,,2013-02-04 02:02:00,
2013-02-03 20:11:00,6.0,-3.0,29.83,North,0,0.0,0.0,67,0.00,,,0.00,,2013-02-04 02:11:00,
2013-02-03 20:21:00,6.0,-3.0,29.83,North,0,0.0,0.0,67,0.00,,,0.00,,2013-02-04 02:21:00,
2013-02-03 20:31:00,3.0,-4.0,29.83,North,0,0.0,0.0,72,0.00,,,0.00,,2013-02-04 02:31:00,
2013-02-03 20:42:00,3.0,-4.0,29.83,North,0,0.0,0.0,72,0.00,,,0.00,,2013-02-04 02:42:00,
2013-02-03 20:52:00,3.0,-4.0,29.83,North,0,0.0,0.0,72,0.00,,,0.00,,2013-02-04 02:52:00,
2013-02-03 21:02:00,3.0,-4.0,29.83,North,0,0.0,0.0,72,0.00,,,0.00,,2013-02-04 03:02:00,
2013-02-03 21:11:00,3.0,-4.0,29.83,North,0,0.0,0.0,72,0.00,,,0.00,,2013-02-04 03:11:00,